Regional Weather Roundup
Issued by NWS

Home | Current Version | Previous Version | Graphics & Text | Print | Product List | Glossary On
Versions: 1 2 3 4 5 6 7 8 9 10 11 12 13 14 15 16 17 18 19 20 21 22 23 24 25 26 27 28 29 30 31 32 33 34 35 36 37 38 39 40 41 42 43 44 45 46 47 48 49 50
000
ASUS45 KBOU 060210
RWRCO

WEATHER ROUNDUP FOR COLORADO
NATIONAL WEATHER SERVICE DENVER/BOULDER CO
800 PM MDT SUN JUL 05 2015

NOTE: "FAIR" INDICATES FEW OR NO CLOUDS BELOW 12000 FEET WITH NO
SIGNIFICANT WEATHER AND/OR OBSTRUCTIONS TO VISIBILITY.

COZ001>005-013-030-031-060300-
...NORTHWEST COLORADO...

CITY           SKY/WX    TMP DP  RH WIND       PRES   REMARKS
CRAIG          CLOUDY    62  58  86 CALM      30.19R
HAYDEN         CLOUDY    59  55  88 S7        30.20R
MEEKER         CLOUDY    64  56  75 E9        30.18R
MOUNT WERNER   NOT AVBL
STEAMBOAT SPGS CLOUDY    59  57  95 E3        30.22R
WALDEN         CLOUDY    54  52  94 NW14      30.28R
$$

COZ006>008-011-060300-
...WEST CENTRAL VALLEYS...

CITY           SKY/WX    TMP DP  RH WIND       PRES   REMARKS
GRAND JUNCTION MOCLDY    70  60  70 S8        30.05R
MONTROSE       CLOUDY    68  56  65 NW14G24   30.18R
EAGLE          CLOUDY    70  55  60 SW12      30.18R
RIFLE          CLOUDY    65  61  87 NE7       30.12R
DELTA          CLOUDY    67  61  80 CALM      30.12S
NUCLA          PTCLDY    72  57  60 CALM      30.16R
$$

COZ017>023-064>068-060300-
...SOUTHWEST COLORADO...

CITY           SKY/WX    TMP DP  RH WIND       PRES   REMARKS
DURANGO        PTCLDY    74  46  36 NW5       30.13S
CORTEZ         CLEAR     77  51  40 N5        30.11R
PAGOSA SPRINGS MOCLDY    70  46  41 NE5       30.22S
TELLURIDE      PTCLDY    57  53  86 CALM      30.37S
WOLF CREEK PAS NOT AVBL
$$

COZ009-010-012-014-032>034-037-058>063-060300-
...CENTRAL COLORADO...

CITY           SKY/WX    TMP DP  RH WIND       PRES   REMARKS
ASPEN          CLOUDY    64  55  72 N3        30.25R
BUENA VISTA    MOCLDY    65  53  64 W6        30.23R
COPPER MTN     RAIN      54  50  87 W18G25    30.54R VSB<1/4
BERTHOUD PASS  CLOUDY    43  34  70 NW16      30.57R
COTTONWOOD PAS NOT AVBL
GUNNISON       PTCLDY    64  48  55 SW9       30.28R
KREMMLING      DRIZZLE   61  55  82 SW3       30.24R
LEADVILLE      CLOUDY    56  47  71 NW7       30.38R
SALIDA         MOCLDY    69  52  55 SW15G21   30.26R
SUNLIGHT       CLOUDY    50  50 100 W5        30.47F VSB 3/4
WILKERSON PASS CLOUDY    50  46  87 W6        30.49F
$$

COZ069>075-060300-
...SAN LUIS VALLEY/SANGRE DE CRISTO MOUNTAINS...

CITY           SKY/WX    TMP DP  RH WIND       PRES   REMARKS
ALAMOSA        CLOUDY    65  50  58 NW14G22   30.21R
LA VETA PASS   CLOUDY    59  45  58 MISG      30.38S
SAGUACHE       MOCLDY    59  54  82 NW17      30.26S
$$

COZ035-036-038>040-060300-
...NORTHERN COLORADO FRONT RANGE...

CITY           SKY/WX    TMP DP  RH WIND       PRES   REMARKS
DENVER INTL AP CLOUDY    70  58  65 N7        30.03S
DMNS CITY PARK   N/A     71  56  60 SE5       30.03R
AURORA         MOCLDY    68  63  83 W3        30.05R
FRONT RANGE AP MOCLDY    72  63  73 N7        30.03F
ERIE MUNI ARPT MOCLDY    70  60  69 N3        30.00S
BOULDER MUN AP CLOUDY    70  61  73 E6        30.01S
CENTENNIAL     CLOUDY    67  61  81 CALM      30.07R
BROOMFIELD     MOCLDY    72  61  68 CALM      30.05R
FORT COLLINS   CLOUDY    68  59  73 N12       30.02R
LONGMONT       CLOUDY    71  64  77 E5        30.03R
$$

COZ041-046-047-076>085-087-088-060300-
...PIKES PEAK/PALMER DIVIDE AND SOUTHERN FOOTHILLS...

CITY           SKY/WX    TMP DP  RH WIND       PRES   REMARKS
COLO. SPRINGS  MOCLDY    70  56  61 N13G22    30.05R
A. F. ACADEMY  CLOUDY    65  58  77 N14       30.08F
ELLICOTT       MOCLDY   N/A N/A N/A N16G23    30.04S
FALCON         CLOUDY    65  55  68 N14       30.11S
FORT CARSON    CLOUDY    72  57  59 N18G29    30.01R
LIMON          CLOUDY    71  55  56 N18G32    29.99S
MONUMENT HILL  CLOUDY    61  57  88 MISG      30.13F
TRINIDAD       MOCLDY    80  54  40 W5        29.99R
$$

COZ042>045-048>051-090-091-060300-
...NORTHEAST COLORADO...

CITY           SKY/WX    TMP DP  RH WIND       PRES   REMARKS
GREELEY ARPT   CLOUDY    72  57  60 N9        30.01R
AKRON          MOCLDY    71  59  65 NW22G29   29.96R
BURLINGTON     LGT RAIN  85  53  33 S22G29    29.85S
WRAY           CLOUDY    85  52  32 NW14G20   29.82R
STERLING       MOCLDY    70  64  83 N23G29      N/A
HOLYOKE        CLOUDY    79  66  65 NW26G33   29.86R
FORT MORGAN    MOCLDY    72  56  57 N18       29.96S
$$

COZ086-089-092>099-060300-
...SOUTHEAST COLORADO...

CITY           SKY/WX    TMP DP  RH WIND       PRES   REMARKS
PUEBLO         CLOUDY    87  51  28 NW15      29.90R
LA JUNTA       MOCLDY    88  54  31 SW7       29.84R
LAMAR          CLOUDY    91  58  32 S20       29.79R
SPRINGFIELD      N/A     83  58  42 S18G24    29.90S
$$


USA.gov is the U.S. government's official web portal to all federal, state and local government web resources and services.